星链-34439 (STARLINK-34439)

导读

STARLINK-34439是美国SpaceX星链星座的成员,于2025年6月18日发射升空。星链项目旨在搭建全球覆盖的卫星互联网星座,为偏远地区、海上以及高空等场景提供高速低时延网络服务。作为系统扩容的卫星之一,它进一步完善了星链低轨星座的部署,提升星座的网络覆盖能力与服务稳定性,推进全球卫星互联网络的构建。

Basic Information
目录编号:
64458
目录名称:
STARLINK-34439
国际标识:
2025-130W
轨道中心:
EARTH
卫星名称:
星链-34439
卫星全名:
星链-34439 (STARLINK-34439)
卫星状态:
在轨 (已飞行443 天)
发射日期:
2025-06-18 UTC
国别 :
美国 (US)
星等 :
--
Orbit Information
数据来源 国际轨道数据
星历时间: 2026-09-04T02:39:38+0800
8小时前
查看轨道信息
半长轴: 6840.833km
偏心率: 0.0001135
轨道倾角: 53.161°
近地点辐角 100.559°
升交点赤经 339.601°
平近点角 259.554°
近地点: 461.919km
远地点: 463.473km
周期: 93.848分钟
每日圈数: 15.344027
Detailed Information
固有亮度:
5
最大亮度:
2.5
卫星平台:
Starlink V1.0
覆盖范围:
全球
运营商:
太空探索技术公司
运营商所在国:
美国
制造商(研发单位):
太空探索技术公司
制造商所在国:
美国
使用方式:
暂无
Satellite Introduction
Starlink 计划是 SpaceX 推出的全球卫星互联网项目,通过发射低轨道卫星,为全球尤其是偏远地区提供高速、低延迟的互联网服务。自 2019 年起,Starlink 已部署数千颗卫星,旨在缩小全球数字鸿沟,推动互联网普及。该项目还为军事、航空等行业提供通信支持,带来广泛经济效益。
2D Orbit Map
3D Orbit Map
Orbit Altitude Analysis Chart
Orbit Inclination Analysis Chart
Orbit Comprehensive Analysis Chart
View Comprehensive Chart
Conjunction Data List
Event ID Objects TCA Miss Dist (km) Collision Risk Probability Collision Risk Index (CRI) Action
CDM_260904-151505-795306-445821
2026-09-04T
15:15:51+0000
1.060 km
极远距离
1.355234E-5 中风险 0.58
CDM_260904-064005-795306-445821
2026-09-04T
06:40:00+0000
1.080 km
极远距离
1.268436E-5 中风险 0.57
CDM_260905-063106-323806-445821
2026-09-05T
06:31:53+0000
1.282 km
极远距离
1.139596E-5 中风险 0.56
CDM_260904-200105-249406-445821
2026-09-04T
20:01:42+0000
1.289 km
极远距离
3.400767E-6 低风险 0.46
CDM_260904-033203-679906-445821
TISAT 1 (36799)
2026-09-04T
03:32:08+0000
1.913 km
极远距离
3.090459E-6 低风险 0.45
CDM_260904-050005-382906-445822
2026-09-04T
05:00:22+0000
2.385 km
极远距离
1.573804E-6 低风险 0.39
CDM_260905-001704-942206-445821
2026-09-05T
00:17:15+0000
2.633 km
极远距离
1.424349E-6 低风险 0.38
CDM_260904-174105-249406-445821
2026-09-04T
17:41:01+0000
1.734 km
极远距离
1.399339E-6 低风险 0.38
CDM_260904-061005-328306-445821
2026-09-04T
06:10:22+0000
2.729 km
极远距离
1.223766E-6 低风险 0.37
CDM_260831-115506-445806-460621
2026-08-31T
11:55:27+0000
2.749 km
极远距离
1.207036E-6 低风险 0.37